Location: El Frío
(10.0713°N, 67.9111°W)
Time: 17:49:32
(UTC+00:00)

Palapa B4 Rocket - Pass Details

Date: 11 December 2025
Orbit: 501 x 2664 km, 19.7° (Epoch: 20 January)

Event Time Altitude Azimuth Distance (km) Brightness Sun altitude
Rises 23:17:48 0° 270° (W) 4,209 8.7 -15.9°
Reaches altitude 10° 23:21:29 10° 277° (W) 2,867 7.4 -16.8°
Maximum altitude 23:27:33 38° 344° (NNW) 1,138 4.3 -18.2°
Enters shadow 23:29:22 28° 29° (NNE) 1,277 4.2 -18.6°
